EA6DT Weather Reports


time (UTC)temp
C
wind
direction
speed
KPH
gust
KPH
rain 1hr
cm
rain 24hr
cm
rain mn
cm
humidity
%
barometer
mb
20260504160343 19 360 12.9 0.0 0.00 0.00 0.00 82 1012.5
20260504150834 20 238 12.9 0.0 0.00 0.00 0.00 78 1012.6
20260504150344 20 254 12.9 0.0 0.00 0.00 0.00 79 1012.7
20260504140845 20 248 9.7 0.0 0.00 0.00 0.00 84 1013.1
20260504140335 19 232 9.7 0.0 0.00 0.00 0.00 86 1013.1
20260504130352 20 281 9.7 0.0 0.00 0.00 0.00 83 1013.5
20260504110343 20 252 11.3 0.0 0.00 0.00 0.00 81 1013.7
20260504100330 21 222 3.2 0.0 0.00 0.00 0.00 77 1013.8
20260504081905 18 134 1.6 0.0 0.00 0.00 0.00 88 1013.8
20260504081335 18 110 1.6 0.0 0.00 0.00 0.00 89 1013.8
20260504080826 18 75 1.6 0.0 0.00 0.00 0.00 90 1013.8
20260504080332 18 91 1.6 0.0 0.00 0.00 0.00 90 1013.9
20260504070334 17 84 0.0 0.0 0.00 0.00 0.00 93 1013.6
20260504045850 16 360 0.0 0.0 0.00 0.00 0.00 93 1013.6
20260504045342 16 360 0.0 0.0 0.00 0.00 0.00 93 1013.6
20260504044834 16 360 0.0 0.0 0.00 0.00 0.00 93 1013.6
20260504044326 16 360 0.0 0.0 0.00 0.00 0.00 93 1013.6
20260504043836 16 360 1.6 0.0 0.00 0.00 0.00 93 1013.7
20260504043342 16 360 1.6 0.0 0.00 0.00 0.00 93 1013.7
20260504042833 16 360 3.2 0.0 0.00 0.00 0.00 93 1013.8
20260504042342 16 360 1.6 0.0 0.00 0.00 0.00 93 1013.7
20260504041832 16 360 1.6 0.0 0.00 0.00 0.00 93 1013.7
20260504041343 16 360 0.0 0.0 0.00 0.00 0.00 93 1013.6
20260504040829 16 360 0.0 0.0 0.00 0.00 0.00 93 1013.5
20260504040340 16 360 0.0 0.0 0.00 0.00 0.00 93 1013.6
20260504035904 16 360 0.0 0.0 0.00 0.00 0.00 93 1013.6
20260504035332 16 360 1.6 0.0 0.00 0.00 0.00 93 1013.7
20260504034838 16 360 1.6 0.0 0.00 0.00 0.00 93 1013.9
20260504034328 16 360 0.0 0.0 0.00 0.00 0.00 93 1013.9
20260504033838 16 360 0.0 0.0 0.00 0.00 0.00 93 1014.0
20260504033330 16 360 0.0 0.0 0.00 0.00 0.00 93 1014.1
20260504032841 16 360 0.0 0.0 0.00 0.00 0.00 93 1014.1
20260504032332 16 360 1.6 0.0 0.00 0.00 0.00 93 1014.1
20260504031838 16 360 1.6 0.0 0.00 0.00 0.00 93 1014.2
20260504031329 16 360 1.6 0.0 0.00 0.00 0.00 93 1014.3
20260504030839 16 360 0.0 0.0 0.00 0.00 0.00 93 1014.3
20260504030337 16 360 0.0 0.0 0.00 0.00 0.00 93 1014.2
20260504025840 16 360 1.6 0.0 0.00 0.00 0.00 93 1014.1
20260504025328 16 360 1.6 0.0 0.00 0.00 0.00 93 1014.1
20260504024838 16 360 1.6 0.0 0.00 0.00 0.00 93 1014.1
20260504024328 16 360 1.6 0.0 0.00 0.00 0.00 93 1014.1
20260504023838 16 360 1.6 0.0 0.00 0.00 0.00 93 1014.1
20260504023329 16 360 1.6 0.0 0.00 0.00 0.00 93 1014.1
20260504022835 16 360 1.6 0.0 0.00 0.00 0.00 93 1014.2
20260504022346 16 360 1.6 0.0 0.00 0.00 0.00 93 1014.2
20260504021837 16 360 1.6 0.0 0.00 0.00 0.00 93 1014.3
20260504021328 16 360 0.0 0.0 0.00 0.00 0.00 93 1014.2
20260504020840 16 360 0.0 0.0 0.00 0.00 0.00 92 1014.2
20260504020346 16 360 0.0 0.0 0.00 0.00 0.00 92 1014.3
20260504015829 16 360 0.0 0.0 0.00 0.00 0.00 92 1014.2
20260504015341 16 360 0.0 0.0 0.00 0.00 0.00 92 1014.3
20260504014851 16 360 0.0 0.0 0.00 0.00 0.00 92 1014.3
20260504014341 16 360 0.0 0.0 0.00 0.00 0.00 92 1014.4
20260504013828 16 360 0.0 0.0 0.00 0.00 0.00 92 1014.4
20260504013356 16 360 0.0 0.0 0.00 0.00 0.00 92 1014.5
20260504012846 16 360 0.0 0.0 0.00 0.00 0.00 92 1014.5
20260504012337 16 360 0.0 0.0 0.00 0.00 0.00 92 1014.4
20260504011904 16 360 0.0 0.0 0.00 0.00 0.00 92 1014.6
20260504011334 16 360 1.6 0.0 0.00 0.00 0.00 91 1014.6
20260504010845 16 360 0.0 0.0 0.00 0.00 0.00 91 1014.6
20260504010355 16 360 0.0 0.0 0.00 0.00 0.00 91 1014.7
20260504005837 16 360 0.0 0.0 0.00 0.00 0.00 91 1014.7
20260504005344 16 360 1.6 0.0 0.00 0.00 0.00 91 1014.9
20260504004835 16 342 1.6 0.0 0.00 0.00 0.00 91 1015.1
20260504004346 16 360 1.6 0.0 0.00 0.00 0.00 91 1015.1
20260504003836 16 360 3.2 0.0 0.00 0.00 0.00 91 1015.0
20260504003327 16 360 3.2 0.0 0.00 0.00 0.00 91 1015.1
20260504002834 16 360 3.2 0.0 0.00 0.00 0.00 91 1015.2
20260504002405 16 360 1.6 0.0 0.00 0.00 0.00 91 1015.2
20260504001835 16 212 1.6 0.0 0.00 0.00 0.00 91 1015.1
20260504001345 16 360 0.0 0.0 0.00 0.00 0.00 91 1015.1
20260504000836 16 360 0.0 0.0 0.00 0.00 0.00 91 1015.1
20260504000402 16 360 0.0 0.0 0.00 0.00 0.00 91 1015.0
20260503235845 16 360 1.6 0.0 0.00 0.00 0.00 91 1014.9
20260503235337 16 360 3.2 0.0 0.00 0.00 0.00 90 1015.0
20260503234827 16 360 1.6 0.0 0.00 0.00 0.00 90 1015.0
20260503234333 16 234 1.6 0.0 0.00 0.00 0.00 90 1015.1
20260503233844 16 360 1.6 0.0 0.00 0.00 0.00 90 1015.1
20260503233335 16 266 0.0 0.0 0.00 0.00 0.00 90 1015.0
20260503232845 16 266 0.0 0.0 0.00 0.00 0.00 90 1015.0
20260503232335 16 360 0.0 0.0 0.00 0.00 0.00 90 1015.0
20260503231840 16 266 0.0 0.0 0.00 0.00 0.00 90 1015.0
20260503231352 16 266 0.0 0.0 0.00 0.00 0.00 90 1015.0
20260503230828 16 266 0.0 0.0 0.00 0.00 0.00 89 1015.0
20260503230339 16 360 0.0 0.0 0.00 0.00 0.00 89 1014.9
20260503225851 16 360 0.0 0.0 0.00 0.00 0.00 89 1015.0
20260503225337 16 360 0.0 0.0 0.00 0.00 0.00 89 1014.9
20260503224827 16 360 0.0 0.0 0.00 0.00 0.00 89 1015.0
20260503224337 16 360 0.0 0.0 0.00 0.00 0.00 89 1015.0
20260503223828 16 360 0.0 0.0 0.00 0.00 0.00 89 1014.9
20260503223339 16 360 0.0 0.0 0.00 0.00 0.00 88 1014.9
20260503222826 17 360 0.0 0.0 0.00 0.00 0.00 88 1014.9
20260503222336 17 360 0.0 0.0 0.00 0.00 0.00 88 1014.9
20260503221826 17 360 0.0 0.0 0.00 0.00 0.00 88 1014.8
20260503221337 17 360 0.0 0.0 0.00 0.00 0.00 88 1014.9
20260503220827 17 360 0.0 0.0 0.00 0.00 0.00 88 1014.7
20260503220333 17 360 0.0 0.0 0.00 0.00 0.00 87 1014.6
20260503215836 17 360 0.0 0.0 0.00 0.00 0.00 87 1014.6
20260503215327 17 360 0.0 0.0 0.00 0.00 1.17 87 1014.6
20260503214837 17 360 0.0 0.0 0.00 0.00 1.17 87 1014.6
20260503214327 17 360 0.0 0.0 0.00 0.00 1.17 87 1014.6
20260503213833 17 360 0.0 0.0 0.00 0.00 1.17 87 1014.8
20260503213344 17 360 0.0 0.0 0.00 0.00 1.17 86 1014.7
20260503212834 17 91 0.0 0.0 0.00 0.00 1.17 86 1014.8
20260503212344 17 360 0.0 0.0 0.00 0.00 1.17 86 1014.8
20260503211853 17 360 0.0 0.0 0.00 0.00 1.17 86 1014.8
20260503211339 17 360 0.0 0.0 0.00 0.00 1.17 86 1014.7
20260503210830 17 360 0.0 0.0 0.00 0.00 1.17 86 1014.6
20260503210340 17 360 0.0 0.0 0.00 0.00 1.17 85 1014.5
20260503205843 17 360 0.0 0.0 0.00 0.00 1.17 85 1014.6
20260503205334 17 87 0.0 0.0 0.00 0.00 1.17 85 1014.6
20260503204901 17 360 0.0 0.0 0.00 0.00 1.17 85 1014.6
20260503204331 17 360 0.0 0.0 0.00 0.00 1.17 85 1014.6
20260503203842 17 360 0.0 0.0 0.00 0.00 1.17 85 1014.4
20260503203333 17 56 0.0 0.0 0.00 0.00 1.17 85 1014.5
20260503202844 17 96 1.6 0.0 0.00 0.00 1.17 84 1014.4
20260503202331 17 360 0.0 0.0 0.00 0.00 1.17 84 1014.5
20260503201841 17 360 0.0 0.0 0.00 0.00 1.17 83 1014.5
20260503201331 17 116 0.0 0.0 0.00 0.00 1.17 83 1014.5
20260503200841 17 103 0.0 0.0 0.00 0.00 1.17 83 1014.6
20260503200332 17 91 0.0 0.0 0.00 0.00 1.17 83 1014.6
20260503195831 17 360 1.6 0.0 0.00 0.00 1.17 82 1014.5
20260503195341 17 86 3.2 0.0 0.00 0.00 1.17 82 1014.4
20260503194831 17 360 4.8 0.0 0.00 0.00 1.17 82 1014.2
20260503194342 17 360 4.8 0.0 0.00 0.00 1.17 82 1014.1
20260503193832 18 360 4.8 0.0 0.00 0.00 1.17 81 1014.2
20260503193339 18 111 1.6 0.0 0.00 0.00 1.17 81 1014.3
20260503192829 18 360 1.6 0.0 0.00 0.00 1.17 81 1014.5
20260503192340 18 73 1.6 0.0 0.00 0.00 1.17 81 1014.3
20260503191830 18 360 1.6 0.0 0.00 0.00 1.17 80 1014.3
20260503190839 18 360 3.2 0.0 0.00 0.00 1.17 80 1014.3
20260503190350 18 360 1.6 0.0 0.00 0.00 1.17 79 1014.4
20260503185832 18 360 0.0 0.0 0.00 0.00 1.17 79 1014.5
20260503185343 18 360 0.0 0.0 0.00 0.00 1.17 78 1014.4
20260503184833 18 360 0.0 0.0 0.00 0.00 1.17 78 1014.5
20260503184341 18 360 0.0 0.0 0.00 0.00 1.17 78 1014.4
20260503183831 18 360 0.0 0.0 0.00 0.00 1.17 77 1014.4
20260503183341 18 360 0.0 0.0 0.00 0.00 1.17 77 1014.4
20260503182831 18 360 0.0 0.0 0.00 0.00 1.17 77 1014.4
20260503182341 18 86 0.0 0.0 0.00 0.00 1.17 76 1014.4
20260503181829 18 77 0.0 0.0 0.00 0.00 1.17 77 1014.4
20260503181419 18 60 0.0 0.0 0.00 0.00 1.17 77 1014.5
20260503180844 18 46 1.6 0.0 0.00 0.00 1.17 76 1014.4
20260503180334 18 54 1.6 0.0 0.00 0.00 1.17 76 1014.4
20260503175833 18 64 0.0 0.0 0.00 0.00 1.17 77 1014.4
20260503175343 18 360 0.0 0.0 0.00 0.00 1.17 77 1014.4
20260503174832 19 360 3.2 0.0 0.00 0.00 1.17 77 1014.4
20260503174344 19 360 3.2 0.0 0.00 0.00 1.17 76 1014.3
20260503173835 19 103 1.6 0.0 0.00 0.00 1.17 76 1014.3
20260503173340 19 360 1.6 0.0 0.00 0.00 1.17 76 1014.2
20260503172831 19 86 1.6 0.0 0.00 0.00 1.17 76 1014.3
20260503172403 19 28 4.8 0.0 0.00 0.00 1.17 76 1014.3
20260503171853 19 105 4.8 0.0 0.00 0.00 1.17 76 1014.1
20260503171342 19 79 4.8 0.0 0.00 0.00 1.17 76 1014.0
20260503170829 19 65 3.2 0.0 0.00 0.00 1.17 77 1014.1
20260503170341 19 108 4.8 0.0 0.00 0.00 1.17 77 1014.2